STARLINK-4367 (53229 NORAD) Tracking and Keplerian Element Data

This shows tracking and keplerian element data for the satellite.

Feedback or suggestion? Click here.




ElementValue
Catalog53229
NameSTARLINK-4367
Epoch Orbit1034
Epoch Day270.12529273
Epoch Year2022
RAAN329.9593
Inclination97.655
Eccentricity0.00015
Argument of Perigee96.6104
Mean Anonmoly263.5291
Mean Motion15.01258083
Decay Rate1.4E-07
L11 53229U 22084AS 22270.12529273 .00000014 00000+0 57162-5 0 9991
L22 53229 97.6550 329.9593 0001500 96.6104 263.5291 15.01258083 10346

Live tracking and technical data element details for STARLINK-4367 (NORAD 53229). STARLINK-4367 can be tracked NOW for your location showing map with azimuth and elevation plus other details from your city location.

Track the satellite on the map from your city or location and see movement details for azimuth, elevation, latitude, longitude, range, height, and movement on the map or in text.







IsCatalogInMostPopularTable: catalog: 53229, numindb: 6
Update: records affected: 1



GetName: 53229 STARLINK-4367

Hit Count: updated at: Wed, 05 Oct 2022 09:48:36 GMT